Regional Weather Roundup
Issued by NWS

Home | Current Version | Previous Version | Graphics & Text | Print | Product List | Glossary On
Versions: 1 2 3 4 5 6 7 8 9 10 11 12 13 14 15 16 17 18 19 20 21 22 23 24 25 26 27 28 29 30 31 32 33 34 35 36 37 38 39 40 41 42 43 44 45 46 47 48 49 50
000
ASUS43 KLOT 222358
RWRIL

ILLINOIS REGIONAL WEATHER ROUNDUP
NATIONAL WEATHER SERVICE CHICAGO/ROMEOVILLE IL
700 PM CDT MON SEP 22 2014

NOTE: "FAIR" INDICATES FEW OR NO CLOUDS BELOW 12,000 FEET WITH NO
SIGNIFICANT WEATHER AND/OR OBSTRUCTIONS TO VISIBILITY.

* THESE STATIONS ARE NOT UNDER NWS QUALITY CONTROL. THEY ALSO MAY NOT
  REPORT WEATHER SUCH AS PRECIPITATION OR FOG.

ILZ001-002-007-009-015-016-024-230100-
NORTHWEST ILLINOIS

CITY           SKY/WX    TMP DP  RH WIND       PRES   REMARKS
MOLINE         CLEAR     61  50  67 S3        30.23S
6HR MIN TEMP:  61; 6HR MAX TEMP:  71;

$$

ILZ003-004-008-010-011-017-018-230100-
NORTH CENTRAL ILLINOIS

CITY           SKY/WX    TMP DP  RH WIND       PRES   REMARKS
ROCKFORD       NOT AVBL
$$

ILZ005-006-012>014-019>023-230100-
NORTHEAST ILLINOIS

CITY           SKY/WX    TMP DP  RH WIND       PRES   REMARKS
CHICAGO-OHARE  CLEAR     65  43  44 CALM      30.23R
6HR MIN TEMP:  58; 6HR MAX TEMP:  67;

CHICAGO-MIDWAY CLEAR     62  46  55 SE8       30.23S
6HR MIN TEMP:  62; 6HR MAX TEMP:  69;

AURORA         CLEAR     61  44  53 W3        30.24R
6HR MIN TEMP:  61; 6HR MAX TEMP:  68;

WAUKEGAN       CLEAR     54  49  83 CALM      30.21S
6HR MIN TEMP:  54; 6HR MAX TEMP:  66;

DUPAGE AIRPORT CLEAR     61  46  57 W3        30.22S
6HR MIN TEMP:  61; 6HR MAX TEMP:  70;

WHEELING       CLEAR     65  44  46 CALM      30.24R
6HR MIN TEMP:  64; 6HR MAX TEMP:  69;

NORTHERLY ISL    N/A     58  47  66 SE6         N/A
$$

LMZ740>746-230100-
SOUTHERN LAKE MICHIGAN

STATION/POSITION SKY/WX   TEMP    WIND        PRES    VSBY  WAVE
                          AIR SEA DIR/SP/G                  HT/PER
                          (F)     (DEG/KT/KT) (MB)    (MI)  (FT/S)
SOUTHERN BUOY              59 62  190/  8/ 10 1023.6F         2/ 6
WAUKEGAN HARBOR            60     180/ 11/ 14   N/A
BURNHAM HARBOR             58     120/  7       N/A
CALUMET HARBOR             59     110/  5/  7 1022.6F
MICHIGAN CITY 6N           58 64  110/  6/  8   N/A           3/ 7
ST. JOSEPH                 58 65  200/  4/  6   N/A           2/ 6
$$

ILZ025>027-034>036-040-047-049-050-058-095>099-230100-
WEST-CENTRAL ILLINOIS

CITY           SKY/WX    TMP DP  RH WIND       PRES   REMARKS
$$

ILZ028>032-037-038-041>044-048-051>054-059>061-230100-
CENTRAL ILLINOIS

CITY           SKY/WX    TMP DP  RH WIND       PRES   REMARKS
PEORIA         NOT AVBL
SPRINGFIELD    CLEAR     63  50  62 NW5       30.24S
6HR MIN TEMP:  63; 6HR MAX TEMP:  74;

TAYLORVILLE    NOT AVBL
$$

ILZ033-039-045-046-055>057-062-063-230100-
EAST-CENTRAL ILLINOIS

CITY           SKY/WX    TMP DP  RH WIND       PRES   REMARKS
CHAMPAIGN      CLEAR     59  47  64 NW5       30.24S
MATTOON        CLEAR     61  44  53 CALM      30.23S
$$

ILZ079-100>102-230100-
SOUTHWEST ILLINOIS

CITY           SKY/WX    TMP DP  RH WIND       PRES   REMARKS
ALTON          CLEAR     63  36  36 W6        30.23S
CAHOKIA*       CLEAR     67  47  48 CALM      30.23R
$$

ILZ064>066-069>071-074>076-080>082-084>086-088>090-092>094-230100-
SOUTH-CENTRAL ILLINOIS

CITY           SKY/WX    TMP DP  RH WIND       PRES   REMARKS
CARBONDALE     CLEAR     63  50  62 NE3       30.22S
6HR MIN TEMP:  63; 6HR MAX TEMP:  73;

$$

ILZ067-068-072-073-078-083-087-091-230100-
SOUTHEAST ILLINOIS

CITY           SKY/WX    TMP DP  RH WIND       PRES   REMARKS
LAWRENCEVILLE  CLEAR     60  51  72 NE3       30.23S
$$

ABBREVIATIONS USED IN REMARKS
   TC - TEMPERATURE IN CELSIUS
  WCI - WIND CHILL INDEX
   HX - HEAT INDEX
  VSB - VISIBILITY
$$



USA.gov is the U.S. government's official web portal to all federal, state and local government web resources and services.